Location: Orange
(33.2833°S, 149.1000°E)
Time: 19:00:47
(UTC+10:00)

ISS - Visible Passes

Search period start: 15 May 2021 00:00
Search period end: 25 May 2021 00:00
Orbit: 417 x 422 km, 51.6° (Epoch: 15 May)

Date Brightness Start Highest point End Pass type
(mag) Time Alt. Az. Time Alt. Az. Time Alt. Az.
19 May -0.9 05:57:43 10° N 06:00:23 22° NE 06:03:04 10° ESE visible
20 May -0.4 05:11:50 10° NNE 05:13:06 12° NE 05:14:22 10° ENE visible
21 May -3.7 05:58:40 10° NW 06:02:04 83° NE 06:05:30 10° SE visible
22 May -2.5 05:12:48 21° NNW 05:14:39 41° NE 05:17:54 10° ESE visible
23 May -0.8 04:28:43 17° E 04:28:43 17° E 04:29:59 10° ESE visible
23 May -2.7 06:01:46 15° W 06:03:59 29° SW 06:07:02 10° SSE visible
24 May -2.9 05:17:15 39° S 05:17:15 39° S 05:19:48 10° SE visible
